Showing default

IRIDIUM 45, 25104

Orbit data source: Space-Track

IRIDIUM 45, 25104 is a payload satellite owned by Iridium (US) in LEO that was launched on Sat, 20 Dec 1997 UTC via a DELTA 7920-10C launch vehicle from the Air Force Western Test Range (AFWTR). Payload-class satellites include a variety of spacecraft equipped with specific instruments for various scientific and technological missions. These include communications satellites like Starlink; space stations such as the ISS; scientific satellites like the Hubble; Earth observation satellites from companies like Planet Labs, Umbra, and HawkEye 360; GPS; miniature CubeSats for education and research; and military/defense satellites.

Loading next visibility...
Identifier
25104, 1997-082A
Orbit
LEO
Country
Flag of USUS
Related business
Manufacturer
MOTO/LMMS
Mission
Non-operational Commercial Communications
Bus & Motor
LM700, Unknown motor
Mass
662 kg wet, 556 kg dry
Launch date (UTC)
1997-12-20 (28 years ago)
Launch vehicle
DELTA 7920-10C
Launch site
Air Force Western Test Range (AFWTR)
Object type
Payload
Rocket body
Debris
Shape & HBR
Box + 2 Pan, 4.2 m
Radar Cross Section
5.666 m², Large (>1 m²)

Expand to show TLE details & history
Last TLE update: 16 hours ago

TLE from 16 hours ago
0 IRIDIUM 45
1 25104U 97082A   25261.10519887  .00016787  00000-0  55173-3 0  9996
2 25104  86.3620   2.6636 0108082 343.5360  16.2383 15.25842411466197
Epoch: 2025-09-18T02:31Z
TLE epoch observation values (Epoch: 2025-09-18T02:31:29.182Z)
Latitude
-0.00008°
Longitude
-32.47957°
Altitude
420.231 km
Speed
7.699 km/s
True Right ascension
00h 10m 39s
True Declination
0° 00' 00"
Sunlit
Object was in full shadow at epoch
Visualization orbit readout
Latitude
Unknown
Longitude
Unknown
Altitude
Unknown
Speed
Unknown
Apparent Right ascension
Unknown
Apparent Declination
Unknown
Sunlit
N/A
Visualization observer readout
Local Sidereal Time
11:05:35
Azimuth
Unknown
Elevation
Unknown
Doppler factor
Unknown
Orbital elements
Apogee altitude
559.273 km
Perigee altitude
410.914 km
Semi-major axis
6,863.23 km
Eccentricity
0.01081
Inclination
86.362°
RAAN
2.6636°
Arg. of periapsis
343.536°
True anomaly
16.58918°
Mean anomaly
16.2383°
Eccentric anomaly
16.41328°
Mean motion
3.81725 °/min
Orbital period
94.31 mins
BSTAR
0.00055173
Loading maneuver chart data...
Computing Atmospheric mass density...

Documentation

Showing up to 5 results
|